Regional Weather Roundup
Issued by NWS San Diego, CA

Home | Current Version | Previous Version | Text Only | Print | Product List | Glossary On
Versions: 1 2 3 4 5 6 7 8 9 10 11 12 13 14 15 16 17 18 19 20 21 22 23 24 25 26 27 28 29 30 31 32 33 34 35 36 37 38 39 40 41 42 43 44 45 46 47 48 49 50
000
ASUS46 KSGX 210610
RWRSGX

SAN DIEGO HOURLY WEATHER ROUNDUP
NATIONAL WEATHER SERVICE SAN DIEGO CA
1100 PM PDT SAT SEP 20 2014

NOTE: "FAIR" INDICATES FEW OR NO CLOUDS BELOW 12,000 FEET WITH NO
SIGNIFICANT WEATHER AND/OR OBSTRUCTIONS TO VISIBILITY.

CAZ042-043-060-061-PZZ750-775-210700-

GREATER SAN DIEGO AREA

CITY           SKY/WX    TMP DP  RH WIND       PRES   REMARKS
LINDBERGH FLD  PTCLDY    71  60  68 CALM      29.96R
POINT LOMA       N/A     66  59  79 NW6         N/A
NATIONAL CITY    N/A     70  62  75 CALM      29.95R
CHULA VISTA      N/A     69  63  80 CALM      29.88R
IMPERIAL BEACH CLEAR     62  58  86 CALM      29.95R
BROWN FIELD    CLEAR     66  60  81 CALM      29.95R
MIRAMAR MCAS   PTCLDY    65  59  81 CALM      29.95R
MONTGOMERY FLD CLEAR     69  61  75 NW3       29.95R

$$

NORTH SAN DIEGO COUNTY

CITY           SKY/WX    TMP DP  RH WIND       PRES   REMARKS
CAMP PENDLETON CLEAR     64  58  80 NE3       29.94R
OCEANSIDE AP   MOCLDY    63  58  83 CALM      29.94R
OCEANSIDE HBR    N/A     68  63  83 E2        29.96R
VISTA            N/A     65  60  84 CALM      29.92R
CARLSBAD       CLEAR     69  61  75 CALM      29.94R
DEL MAR          N/A     66  63  90 CALM      29.97R
LA JOLLA SCRIP   N/A     69  64  85 CALM      29.92R
FALLBROOK        N/A     64  64 100 CALM      29.95R
ESCONDIDO        N/A     67  62  83 W2        29.96R
SAN MARCOS       N/A     66  60  83 CALM      29.92R
POWAY            N/A     65  59  82 CALM      29.95R

$$

EAST SAN DIEGO COUNTY

CITY           SKY/WX    TMP DP  RH WIND       PRES   REMARKS
RAMONA         CLEAR     59  56  89 CALM      29.97R
SANTEE LAKES     N/A     65  60  85 CALM      29.96R
LA MESA          N/A     68  62  83 CALM      29.88S
JAMUL            N/A     62  58  86 CALM      29.93R
MT. LAGUNA OBS   N/A     58  16  19 CALM      29.72R
CAMPO            N/A     54  50  86 NE5       29.97R

$$

ORANGE COUNTY AND THE LOS ANGELES BASIN

CITY           SKY/WX    TMP DP  RH WIND       PRES   REMARKS
JOHN WAYNE AP  PTCLDY    71  61  70 CALM      29.94R
LAGUNA BEACH     N/A    N/A  18   0 CALM      29.89S
LAKE FOREST FR   N/A     64  58  81 CALM      29.85R
SANTA ANA        N/A     68  62  81 CALM      29.89R
HUNTINGTON BCH   N/A     67  63  87 CALM      29.96R
LOS ALAMITOS   FAIR      66  60  82 W2        29.94R
FULLERTON      CLEAR     69  60  73 CALM      29.93R
LONG BEACH     CLEAR     68  61  78 CALM      29.93S
L.A. AP        PTCLDY    68  63  84 W6        29.94R
L.A. DOWNTOWN  CLEAR     68  60  75 CALM      29.93R

$$

THE INLAND EMPIRE

CITY           SKY/WX    TMP DP  RH WIND       PRES   REMARKS
CORONA         CLEAR     67  61  81 W7        29.95R
CHINO          CLEAR     66  59  78 SW5       29.95R
ONTARIO        CLEAR     67  60  78 W6        29.95R
RIVERSIDE AP   CLEAR     68  61  78 W5        29.95R
RIV CYN CREST    N/A     68  67  96 NW1       29.92R
MORENO VALLEY    N/A     67  63  86 SW1       29.14R
MARCH ARB      CLEAR     65  60  81 W5        29.96R
HORSETHIEF CYN   N/A     65  56  70 CALM      29.95R
PERRIS           N/A     67  60  79 SE2       29.94R
MENIFEE          N/A     67  62  85 S5        30.00R
HEMET EAST       N/A     65  53  66 CALM      29.93S
FRENCH VALLEY  FAIR      63  59  88 SE3       29.97R
TEMECULA         N/A     65  62  87 E2        29.93R

$$

SAN BERNARDINO AND RIVERSIDE COUNTY MOUNTAINS

CITY           SKY/WX    TMP DP  RH WIND       PRES   REMARKS
BIG BEAR AP    FAIR      46  37  71 CALM      30.20R
PINE COVE        N/A     57  47  68 CALM      29.78R

$$

SOUTHERN DESERT INCLUDING THE COACHELLA VALLEY

CITY           SKY/WX    TMP DP  RH WIND       PRES   REMARKS
PALM SPRINGS   CLEAR     85  55  35 NW12      29.81R
THOUSAND PALMS   N/A     81  59  47 W12       29.76R
PALM DESERT      N/A     82  60  46 CALM        N/A
THERMAL        CLEAR     85  59  41 NW14      29.75R
BLYTHE         CLEAR     86  57  37 S13       29.79R
IMPERIAL AP    CLEAR     83  53  35 W8        29.76R
EL CENTRO NAS  CLEAR     85  50  29 W8        29.77R
YUMA AZ        CLEAR     85  64  49 S8        29.79R

$$

UPPER DESERT

CITY           SKY/WX    TMP DP  RH WIND       PRES   REMARKS
VICTORVILLE AP CLEAR     70  55  60 S9        29.98S
HESPERIA         N/A     71  52  51 CALM      29.96R
APPLE VALLEY     N/A     71  55  56 SW2       30.04S
PALMDALE       CLEAR     69  50  50 NW6       29.97R
LANCASTER      CLEAR     70  47  43 W12       29.96R
EDWARDS AFB    MOCLDY    73  45  36 W12       29.92R
DAGGETT        PTCLDY    79  50  36 W14       29.91R
29 PALMS N     CLEAR     79  54  41 W6        29.96R
NEEDLES        CLEAR     91  53  27 W9        29.79S

$$

REGIONAL REPORTS

CITY           SKY/WX    TMP DP  RH WIND       PRES   REMARKS
SANTA BARBARA  CLEAR     65  62  90 CALM      29.93R
SANDBERG       CLEAR     61  53  75 SW7       30.08R
MT. WILSON       N/A     59  43  55 E12         N/A
LAS VEGAS NV   CLOUDY    84  57  39 N7        29.87R THUNDER
PHOENIX AZ     PTCLDY    87  66  49 SE8       29.85R
TIJUANA        CLEAR     66  57  72 W5        29.97

$$

OFFSHORE ISLANDS

CITY           SKY/WX    TMP DP  RH WIND       PRES   REMARKS
CATALINA ARPT  PTCLDY    61  58  90 SW8       29.98R
SAN NICOLAS IS MOCLDY   N/A N/A N/A W9        29.96R

$$

MARINE AND OFFSHORE BUOY REPORTS

STATION/POSITION SKY/WX   TEMP    WIND        PRES    SWELL
                          AIR SEA DIR/SP/G            HT/PER/DIR
                          (F)     (DEG/KT/KT) (MB)    (FT/S/D)
TANNER BANKS               68 71  290/  8/ 10 1014.4R   5/300/10
S CLEMENTE BASIN           69 74  300/ 12/ 14 1014.0R   3/250/14
SAN NICOLAS IS.               70                N/A     3/180/14
SO. S. ROSA ISLA           67 69  320/ 14/ 17 1013.7R   3/13
W. S. BARBARA CH           65 65  330/ 14/ 16 1013.7R   3/240/14
M. S. BARBARA CH           65 67  250/  6/  6 1013.3R
S. MONICA BASIN            68 72  340/ 10/ 12 1013.4R   2/170/13
S PEDRO CHANNEL               74                N/A     2/160/13
DANA POINT                    71                N/A     2/180/13
CMP PENDLETON NS              71                N/A     2/220/14
OCEANSIDE OFFSHR              72                N/A     2/200/14
TORREY PINES OTR              71                N/A     2/200/13
LA JOLLA 1                 70 72  320/  4/  5 1014.0R
MISSION BAY BUOY              73                N/A     2/220/13
SAN DIEGO BAY                 76              1014.5S

$$



USA.gov is the U.S. government's official web portal to all federal, state and local government web resources and services.